TimeEST,TemperatureF,Dew PointF,Humidity,Sea Level PressureIn,VisibilityMPH,Wind Direction,Wind SpeedMPH,Gust SpeedMPH,PrecipitationIn,Events,Conditions,WindDirDegrees,DateUTC
12:55 AM,30.7,15.6,54,29.95,10.0,NW,10.4,-,N/A,,Clear,310,2013-03-04 05:55:00
1:55 AM,30.0,15.3,54,29.96,10.0,WNW,9.2,18.4,N/A,,Clear,300,2013-03-04 06:55:00
2:55 AM,30.0,14.5,53,29.96,10.0,NW,11.5,17.3,N/A,,Clear,310,2013-03-04 07:55:00
3:55 AM,29.7,14.9,54,29.96,10.0,WNW,11.5,23.0,N/A,,Clear,300,2013-03-04 08:55:00
4:55 AM,29.5,15.4,56,29.98,10.0,WNW,12.7,-,N/A,,Clear,300,2013-03-04 09:55:00
5:55 AM,29.7,14.2,53,29.99,10.0,WNW,12.7,-,N/A,,Clear,300,2013-03-04 10:55:00
6:55 AM,28.9,14.2,54,30.01,10.0,NW,12.7,-,N/A,,Clear,310,2013-03-04 11:55:00
7:55 AM,31.1,13.6,48,30.03,10.0,NW,17.3,24.2,N/A,,Clear,320,2013-03-04 12:55:00
8:55 AM,32.5,12.4,43,30.04,10.0,NW,20.7,32.2,N/A,,Clear,310,2013-03-04 13:55:00
9:55 AM,34.5,12.7,41,30.04,10.0,NW,18.4,26.5,N/A,,Clear,310,2013-03-04 14:55:00
10:55 AM,37.6,14.4,39,30.04,10.0,WNW,17.3,26.5,N/A,,Clear,300,2013-03-04 15:55:00
11:55 AM,39.2,15.6,38,30.02,10.0,NW,21.9,26.5,N/A,,Clear,310,2013-03-04 16:55:00
1:55 PM,42.3,16.0,35,29.98,10.0,WNW,19.6,27.6,N/A,,Clear,290,2013-03-04 18:55:00
2:55 PM,44.2,16.3,33,29.97,10.0,WNW,16.1,24.2,N/A,,Clear,300,2013-03-04 19:55:00
3:55 PM,44.4,16.0,32,29.97,10.0,NW,16.1,24.2,N/A,,Clear,310,2013-03-04 20:55:00
4:55 PM,44.1,14.5,30,29.98,10.0,WNW,17.3,26.5,N/A,,Clear,290,2013-03-04 21:55:00
5:55 PM,41.7,13.5,32,29.99,10.0,NW,11.5,18.4,N/A,,Clear,310,2013-03-04 22:55:00
6:55 PM,39.9,13.5,34,30.02,10.0,WNW,9.2,-,N/A,,Clear,300,2013-03-04 23:55:00
7:55 PM,38.7,14.4,37,30.04,10.0,WNW,6.9,-,N/A,,Clear,290,2013-03-05 00:55:00
8:55 PM,32.9,15.1,48,30.05,10.0,Calm,Calm,-,N/A,,Clear,0,2013-03-05 01:55:00
9:55 PM,29.8,18.5,63,30.06,10.0,Calm,Calm,-,N/A,,Clear,0,2013-03-05 02:55:00
10:55 PM,28.4,18.1,65,30.05,10.0,Calm,Calm,-,N/A,,Clear,0,2013-03-05 03:55:00
11:55 PM,27.3,17.6,67,30.06,10.0,Calm,Calm,-,N/A,,Clear,0,2013-03-05 04:55:00